owner,sensor,date,latitude,longitude,vertical_datum,wind_speed,wind_to_direction,wind_speed_of_gust,qcFlag 
TCOON,ioos:station:TCOON:057:1,2017-10-01T00:00:00Z,28.4460,-96.3961,0.0,2.4,109.0,3.1,'11111222,11111222,11111222' 
TCOON,ioos:station:TCOON:057:1,2017-10-01T00:06:00Z,28.4460,-96.3961,0.0,2.8,102.0,3.3,'11111222,11111222,11111222' 
TCOON,ioos:station:TCOON:057:1,2017-10-01T00:12:00Z,28.4460,-96.3961,0.0,2.8,93.0,3.5,'11111222,11111222,11111222' 
TCOON,ioos:station:TCOON:057:1,2017-10-01T00:18:00Z,28.4460,-96.3961,0.0,2.8,93.0,3.5,'1111122,1111122,1111122' 
TCOON,ioos:station:TCOON:057:1,2017-10-01T00:24:00Z,28.4460,-96.3961,0.0,2.4,93.0,3.2,'11111222,11111222,11111222' 
TCOON,ioos:station:TCOON:057:1,2017-10-01T00:30:00Z,28.4460,-96.3961,0.0,2.8,103.0,3.5,'11111222,11111222,11111222' 
TCOON,ioos:station:TCOON:057:1,2017-10-01T00:36:00Z,28.4460,-96.3961,0.0,2.7,100.0,3.1,'11111222,11111222,11111222' 
TCOON,ioos:station:TCOON:057:1,2017-10-01T00:42:00Z,28.4460,-96.3961,0.0,2.5,96.0,2.8,'11111222,11111222,11111222' 
TCOON,ioos:station:TCOON:057:1,2017-10-01T00:48:00Z,28.4460,-96.3961,0.0,2.3,91.0,2.9,'11111222,11111222,11111222' 
TCOON,ioos:station:TCOON:057:1,2017-10-01T00:54:00Z,28.4460,-96.3961,0.0,2.5,101.0,2.8,'11111222,11111222,11111222' 
TCOON,ioos:station:TCOON:057:1,2017-10-01T01:00:00Z,28.4460,-96.3961,0.0,2.1,109.0,2.7,'11111222,11111222,11111222' 
TCOON,ioos:station:TCOON:057:1,2017-10-01T01:06:00Z,28.4460,-96.3961,0.0,2.5,102.0,2.8,'11111222,11111222,11111222' 
TCOON,ioos:station:TCOON:057:1,2017-10-01T01:12:00Z,28.4460,-96.3961,0.0,2.4,98.0,2.7,'11111222,11111222,11111222' 
TCOON,ioos:station:TCOON:057:1,2017-10-01T01:18:00Z,28.4460,-96.3961,0.0,2.4,98.0,2.7,'1111122,1111122,1111122' 
TCOON,ioos:station:TCOON:057:1,2017-10-01T01:24:00Z,28.4460,-96.3961,0.0,2.3,94.0,2.9,'11111222,11111222,11111222' 
TCOON,ioos:station:TCOON:057:1,2017-10-01T01:30:00Z,28.4460,-96.3961,0.0,2.3,79.0,2.8,'11111222,11111222,11111222' 
TCOON,ioos:station:TCOON:057:1,2017-10-01T01:36:00Z,28.4460,-96.3961,0.0,2.4,73.0,2.7,'11111222,11111222,11111222' 
TCOON,ioos:station:TCOON:057:1,2017-10-01T01:42:00Z,28.4460,-96.3961,0.0,2.3,79.0,2.7,'11111222,11111222,11111222' 
TCOON,ioos:station:TCOON:057:1,2017-10-01T01:48:00Z,28.4460,-96.3961,0.0,2.6,68.0,3.0,'11111222,11111222,11111222' 
TCOON,ioos:station:TCOON:057:1,2017-10-01T01:54:00Z,28.4460,-96.3961,0.0,3.0,70.0,3.5,'11111222,11111222,11111222' 
TCOON,ioos:station:TCOON:057:1,2017-10-01T02:00:00Z,28.4460,-96.3961,0.0,3.3,69.0,3.8,'11111222,11111222,11111222' 
TCOON,ioos:station:TCOON:057:1,2017-10-01T02:06:00Z,28.4460,-96.3961,0.0,3.3,82.0,4.0,'11111222,11111222,11111222' 
TCOON,ioos:station:TCOON:057:1,2017-10-01T02:12:00Z,28.4460,-96.3961,0.0,3.9,75.0,4.4,'11111222,11111222,11111222' 
TCOON,ioos:station:TCOON:057:1,2017-10-01T02:18:00Z,28.4460,-96.3961,0.0,3.9,75.0,4.4,'1111122,1111122,1111122' 
TCOON,ioos:station:TCOON:057:1,2017-10-01T02:24:00Z,28.4460,-96.3961,0.0,4.2,74.0,4.6,'11111222,11111222,11111222' 
TCOON,ioos:station:TCOON:057:1,2017-10-01T02:30:00Z,28.4460,-96.3961,0.0,4.1,78.0,4.6,'11111222,11111222,11111222' 
TCOON,ioos:station:TCOON:057:1,2017-10-01T02:36:00Z,28.4460,-96.3961,0.0,3.8,74.0,4.2,'11111222,11111222,11111222' 
TCOON,ioos:station:TCOON:057:1,2017-10-01T02:42:00Z,28.4460,-96.3961,0.0,4.0,77.0,4.5,'11111222,11111222,11111222' 
TCOON,ioos:station:TCOON:057:1,2017-10-01T02:48:00Z,28.4460,-96.3961,0.0,4.2,83.0,4.5,'11111222,11111222,11111222' 
TCOON,ioos:station:TCOON:057:1,2017-10-01T02:54:00Z,28.4460,-96.3961,0.0,3.8,76.0,4.3,'11111222,11111222,11111222' 
TCOON,ioos:station:TCOON:057:1,2017-10-01T03:00:00Z,28.4460,-96.3961,0.0,3.8,85.0,4.4,'11111222,11111222,11111222' 
TCOON,ioos:station:TCOON:057:1,2017-10-01T03:06:00Z,28.4460,-96.3961,0.0,3.8,73.0,4.4,'11111222,11111222,11111222' 
TCOON,ioos:station:TCOON:057:1,2017-10-01T03:12:00Z,28.4460,-96.3961,0.0,3.7,76.0,4.2,'11111222,11111222,11111222' 
TCOON,ioos:station:TCOON:057:1,2017-10-01T03:18:00Z,28.4460,-96.3961,0.0,3.7,76.0,4.2,'1111122,1111122,1111122' 
TCOON,ioos:station:TCOON:057:1,2017-10-01T03:24:00Z,28.4460,-96.3961,0.0,3.6,75.0,4.4,'11111222,11111222,11111222' 
TCOON,ioos:station:TCOON:057:1,2017-10-01T03:30:00Z,28.4460,-96.3961,0.0,3.7,71.0,4.1,'11111222,11111222,11111222' 
TCOON,ioos:station:TCOON:057:1,2017-10-01T03:36:00Z,28.4460,-96.3961,0.0,3.6,69.0,4.0,'11111222,11111222,11111222' 
TCOON,ioos:station:TCOON:057:1,2017-10-01T03:42:00Z,28.4460,-96.3961,0.0,3.6,70.0,3.9,'11111222,11111222,11111222' 
TCOON,ioos:station:TCOON:057:1,2017-10-01T03:48:00Z,28.4460,-96.3961,0.0,3.5,72.0,3.9,'11111222,11111222,11111222' 
TCOON,ioos:station:TCOON:057:1,2017-10-01T03:54:00Z,28.4460,-96.3961,0.0,3.8,75.0,4.2,'11111222,11111222,11111222' 
TCOON,ioos:station:TCOON:057:1,2017-10-01T04:00:00Z,28.4460,-96.3961,0.0,3.8,73.0,4.4,'11111222,11111222,11111222' 
TCOON,ioos:station:TCOON:057:1,2017-10-01T04:06:00Z,28.4460,-96.3961,0.0,3.5,73.0,4.0,'11111222,11111222,11111222' 
TCOON,ioos:station:TCOON:057:1,2017-10-01T04:12:00Z,28.4460,-96.3961,0.0,3.4,64.0,4.0,'11111222,11111222,11111222' 
TCOON,ioos:station:TCOON:057:1,2017-10-01T04:18:00Z,28.4460,-96.3961,0.0,3.4,64.0,4.0,'1111122,1111122,1111122' 
TCOON,ioos:station:TCOON:057:1,2017-10-01T04:24:00Z,28.4460,-96.3961,0.0,3.1,66.0,4.0,'11111222,11111222,11111222' 
TCOON,ioos:station:TCOON:057:1,2017-10-01T04:30:00Z,28.4460,-96.3961,0.0,3.2,65.0,3.6,'11111222,11111222,11111222' 
TCOON,ioos:station:TCOON:057:1,2017-10-01T04:36:00Z,28.4460,-96.3961,0.0,3.3,61.0,3.6,'11111222,11111222,11111222' 
TCOON,ioos:station:TCOON:057:1,2017-10-01T04:42:00Z,28.4460,-96.3961,0.0,3.2,62.0,3.7,'11111222,11111222,11111222' 
TCOON,ioos:station:TCOON:057:1,2017-10-01T04:48:00Z,28.4460,-96.3961,0.0,2.5,57.0,3.6,'11111222,11111222,11111222' 
TCOON,ioos:station:TCOON:057:1,2017-10-01T04:54:00Z,28.4460,-96.3961,0.0,2.6,57.0,3.4,'11111222,11111222,11111222' 
TCOON,ioos:station:TCOON:057:1,2017-10-01T05:00:00Z,28.4460,-96.3961,0.0,2.7,64.0,3.1,'11111222,11111222,11111222' 
TCOON,ioos:station:TCOON:057:1,2017-10-01T05:06:00Z,28.4460,-96.3961,0.0,2.7,51.0,3.2,'11111222,11111222,11111222' 
TCOON,ioos:station:TCOON:057:1,2017-10-01T05:12:00Z,28.4460,-96.3961,0.0,2.7,57.0,3.2,'11111222,11111222,11111222' 
TCOON,ioos:station:TCOON:057:1,2017-10-01T05:18:00Z,28.4460,-96.3961,0.0,2.7,56.0,3.1,'11111222,11111222,11111222' 
TCOON,ioos:station:TCOON:057:1,2017-10-01T05:24:00Z,28.4460,-96.3961,0.0,2.7,56.0,3.1,'1111122,1111122,1111122' 
TCOON,ioos:station:TCOON:057:1,2017-10-01T05:30:00Z,28.4460,-96.3961,0.0,2.7,47.0,3.4,'11111222,11111222,11111222' 
TCOON,ioos:station:TCOON:057:1,2017-10-01T05:36:00Z,28.4460,-96.3961,0.0,2.6,54.0,3.4,'11111222,11111222,11111222' 
TCOON,ioos:station:TCOON:057:1,2017-10-01T05:42:00Z,28.4460,-96.3961,0.0,2.5,42.0,3.1,'11111222,11111222,11111222' 
TCOON,ioos:station:TCOON:057:1,2017-10-01T05:48:00Z,28.4460,-96.3961,0.0,2.8,43.0,3.1,'11111222,11111222,11111222' 
TCOON,ioos:station:TCOON:057:1,2017-10-01T05:54:00Z,28.4460,-96.3961,0.0,3.3,41.0,3.8,'11111222,11111222,11111222' 
TCOON,ioos:station:TCOON:057:1,2017-10-01T06:00:00Z,28.4460,-96.3961,0.0,3.0,42.0,3.6,'11111222,11111222,11111222' 
TCOON,ioos:station:TCOON:057:1,2017-10-01T06:06:00Z,28.4460,-96.3961,0.0,3.5,46.0,4.0,'11111222,11111222,11111222' 
TCOON,ioos:station:TCOON:057:1,2017-10-01T06:12:00Z,28.4460,-96.3961,0.0,3.4,41.0,3.9,'11111222,11111222,11111222' 
TCOON,ioos:station:TCOON:057:1,2017-10-01T06:18:00Z,28.4460,-96.3961,0.0,3.4,41.0,3.9,'1111122,1111122,1111122' 
TCOON,ioos:station:TCOON:057:1,2017-10-01T06:24:00Z,28.4460,-96.3961,0.0,3.9,25.0,4.3,'11111222,11111222,11111222' 
TCOON,ioos:station:TCOON:057:1,2017-10-01T06:30:00Z,28.4460,-96.3961,0.0,4.0,26.0,4.3,'11111222,11111222,11111222' 
TCOON,ioos:station:TCOON:057:1,2017-10-01T06:36:00Z,28.4460,-96.3961,0.0,4.2,31.0,4.7,'11111222,11111222,11111222' 
TCOON,ioos:station:TCOON:057:1,2017-10-01T06:42:00Z,28.4460,-96.3961,0.0,4.4,40.0,5.0,'11111222,11111222,11111222' 
TCOON,ioos:station:TCOON:057:1,2017-10-01T06:48:00Z,28.4460,-96.3961,0.0,4.3,38.0,4.8,'11111222,11111222,11111222' 
TCOON,ioos:station:TCOON:057:1,2017-10-01T06:54:00Z,28.4460,-96.3961,0.0,4.3,45.0,5.0,'11111222,11111222,11111222' 
TCOON,ioos:station:TCOON:057:1,2017-10-01T07:00:00Z,28.4460,-96.3961,0.0,4.5,43.0,5.0,'11111222,11111222,11111222' 
TCOON,ioos:station:TCOON:057:1,2017-10-01T07:06:00Z,28.4460,-96.3961,0.0,4.3,46.0,5.0,'11111222,11111222,11111222' 
TCOON,ioos:station:TCOON:057:1,2017-10-01T07:12:00Z,28.4460,-96.3961,0.0,4.6,41.0,5.2,'11111222,11111222,11111222' 
TCOON,ioos:station:TCOON:057:1,2017-10-01T07:18:00Z,28.4460,-96.3961,0.0,4.6,41.0,5.2,'1111122,1111122,1111122' 
TCOON,ioos:station:TCOON:057:1,2017-10-01T07:24:00Z,28.4460,-96.3961,0.0,5.3,46.0,6.1,'11111222,11111222,11111222' 
TCOON,ioos:station:TCOON:057:1,2017-10-01T07:30:00Z,28.4460,-96.3961,0.0,5.5,44.0,6.0,'11111222,11111222,11111222' 
TCOON,ioos:station:TCOON:057:1,2017-10-01T07:36:00Z,28.4460,-96.3961,0.0,5.6,48.0,6.2,'11111222,11111222,11111222' 
TCOON,ioos:station:TCOON:057:1,2017-10-01T07:42:00Z,28.4460,-96.3961,0.0,5.5,54.0,6.0,'11111222,11111222,11111222' 
TCOON,ioos:station:TCOON:057:1,2017-10-01T07:48:00Z,28.4460,-96.3961,0.0,5.2,48.0,6.1,'11111222,11111222,11111222' 
TCOON,ioos:station:TCOON:057:1,2017-10-01T07:54:00Z,28.4460,-96.3961,0.0,5.6,51.0,6.2,'11111222,11111222,11111222' 
TCOON,ioos:station:TCOON:057:1,2017-10-01T08:00:00Z,28.4460,-96.3961,0.0,5.4,55.0,6.2,'11111222,11111222,11111222' 
TCOON,ioos:station:TCOON:057:1,2017-10-01T08:06:00Z,28.4460,-96.3961,0.0,5.5,51.0,6.2,'11111222,11111222,11111222' 
TCOON,ioos:station:TCOON:057:1,2017-10-01T08:12:00Z,28.4460,-96.3961,0.0,5.6,52.0,6.1,'11111222,11111222,11111222' 
TCOON,ioos:station:TCOON:057:1,2017-10-01T08:18:00Z,28.4460,-96.3961,0.0,5.6,52.0,6.1,'1111122,1111122,1111122' 
TCOON,ioos:station:TCOON:057:1,2017-10-01T08:24:00Z,28.4460,-96.3961,0.0,4.9,52.0,5.8,'11111222,11111222,11111222' 
TCOON,ioos:station:TCOON:057:1,2017-10-01T08:30:00Z,28.4460,-96.3961,0.0,4.5,50.0,5.4,'11111222,11111222,11111222' 
TCOON,ioos:station:TCOON:057:1,2017-10-01T08:36:00Z,28.4460,-96.3961,0.0,4.5,52.0,5.5,'11111222,11111222,11111222' 
TCOON,ioos:station:TCOON:057:1,2017-10-01T08:42:00Z,28.4460,-96.3961,0.0,4.8,58.0,5.4,'11111222,11111222,11111222' 
TCOON,ioos:station:TCOON:057:1,2017-10-01T08:48:00Z,28.4460,-96.3961,0.0,5.1,42.0,5.7,'11111222,11111222,11111222' 
TCOON,ioos:station:TCOON:057:1,2017-10-01T08:54:00Z,28.4460,-96.3961,0.0,4.6,44.0,5.7,'11111222,11111222,11111222' 
TCOON,ioos:station:TCOON:057:1,2017-10-01T09:00:00Z,28.4460,-96.3961,0.0,5.3,44.0,6.1,'11111222,11111222,11111222' 
TCOON,ioos:station:TCOON:057:1,2017-10-01T09:06:00Z,28.4460,-96.3961,0.0,5.5,41.0,6.3,'11111222,11111222,11111222' 
TCOON,ioos:station:TCOON:057:1,2017-10-01T09:12:00Z,28.4460,-96.3961,0.0,6.2,41.0,6.7,'11111222,11111222,11111222' 
TCOON,ioos:station:TCOON:057:1,2017-10-01T09:18:00Z,28.4460,-96.3961,0.0,6.2,41.0,6.7,'1111122,1111122,1111122' 
TCOON,ioos:station:TCOON:057:1,2017-10-01T09:24:00Z,28.4460,-96.3961,0.0,5.9,42.0,6.8,'11111222,11111222,11111222' 
TCOON,ioos:station:TCOON:057:1,2017-10-01T09:30:00Z,28.4460,-96.3961,0.0,5.9,41.0,7.0,'11111222,11111222,11111222' 
TCOON,ioos:station:TCOON:057:1,2017-10-01T09:36:00Z,28.4460,-96.3961,0.0,5.7,46.0,7.1,'11111222,11111222,11111222' 
TCOON,ioos:station:TCOON:057:1,2017-10-01T09:42:00Z,28.4460,-96.3961,0.0,5.8,46.0,6.7,'11111222,11111222,11111222' 
TCOON,ioos:station:TCOON:057:1,2017-10-01T09:48:00Z,28.4460,-96.3961,0.0,6.4,42.0,7.3,'11111222,11111222,11111222' 
TCOON,ioos:station:TCOON:057:1,2017-10-01T09:54:00Z,28.4460,-96.3961,0.0,6.1,45.0,7.1,'11111222,11111222,11111222' 
TCOON,ioos:station:TCOON:057:1,2017-10-01T10:00:00Z,28.4460,-96.3961,0.0,6.0,44.0,6.7,'11111222,11111222,11111222' 
TCOON,ioos:station:TCOON:057:1,2017-10-01T10:06:00Z,28.4460,-96.3961,0.0,6.1,51.0,6.9,'11111222,11111222,11111222' 
TCOON,ioos:station:TCOON:057:1,2017-10-01T10:12:00Z,28.4460,-96.3961,0.0,6.2,46.0,7.1,'11111222,11111222,11111222' 
TCOON,ioos:station:TCOON:057:1,2017-10-01T10:18:00Z,28.4460,-96.3961,0.0,6.2,46.0,7.1,'1111122,1111122,1111122' 
TCOON,ioos:station:TCOON:057:1,2017-10-01T10:24:00Z,28.4460,-96.3961,0.0,6.5,46.0,7.1,'11111222,11111222,11111222' 
TCOON,ioos:station:TCOON:057:1,2017-10-01T10:30:00Z,28.4460,-96.3961,0.0,6.3,45.0,7.1,'11111222,11111222,11111222' 
TCOON,ioos:station:TCOON:057:1,2017-10-01T10:36:00Z,28.4460,-96.3961,0.0,6.4,45.0,7.1,'11111222,11111222,11111222' 
TCOON,ioos:station:TCOON:057:1,2017-10-01T10:42:00Z,28.4460,-96.3961,0.0,5.9,45.0,7.1,'11111222,11111222,11111222' 
TCOON,ioos:station:TCOON:057:1,2017-10-01T10:48:00Z,28.4460,-96.3961,0.0,6.0,49.0,6.9,'11111222,11111222,11111222' 
TCOON,ioos:station:TCOON:057:1,2017-10-01T10:54:00Z,28.4460,-96.3961,0.0,5.8,52.0,6.9,'11111222,11111222,11111222' 
TCOON,ioos:station:TCOON:057:1,2017-10-01T11:00:00Z,28.4460,-96.3961,0.0,5.7,50.0,6.7,'11111222,11111222,11111222' 
TCOON,ioos:station:TCOON:057:1,2017-10-01T11:06:00Z,28.4460,-96.3961,0.0,5.5,54.0,6.2,'11111222,11111222,11111222' 
TCOON,ioos:station:TCOON:057:1,2017-10-01T11:12:00Z,28.4460,-96.3961,0.0,5.0,54.0,6.0,'11111222,11111222,11111222' 
TCOON,ioos:station:TCOON:057:1,2017-10-01T11:18:00Z,28.4460,-96.3961,0.0,5.0,54.0,6.0,'1111122,1111122,1111122' 
TCOON,ioos:station:TCOON:057:1,2017-10-01T11:24:00Z,28.4460,-96.3961,0.0,4.9,45.0,5.6,'11111222,11111222,11111222' 
TCOON,ioos:station:TCOON:057:1,2017-10-01T11:30:00Z,28.4460,-96.3961,0.0,4.9,42.0,5.7,'11111222,11111222,11111222' 
TCOON,ioos:station:TCOON:057:1,2017-10-01T11:36:00Z,28.4460,-96.3961,0.0,5.0,50.0,5.5,'11111222,11111222,11111222' 
TCOON,ioos:station:TCOON:057:1,2017-10-01T11:42:00Z,28.4460,-96.3961,0.0,4.9,50.0,5.7,'11111222,11111222,11111222' 
TCOON,ioos:station:TCOON:057:1,2017-10-01T11:48:00Z,28.4460,-96.3961,0.0,4.8,55.0,5.4,'11111222,11111222,11111222' 
TCOON,ioos:station:TCOON:057:1,2017-10-01T11:54:00Z,28.4460,-96.3961,0.0,4.6,53.0,5.4,'11111222,11111222,11111222' 
TCOON,ioos:station:TCOON:057:1,2017-10-01T12:00:00Z,28.4460,-96.3961,0.0,4.7,58.0,5.5,'11111222,11111222,11111222' 
TCOON,ioos:station:TCOON:057:1,2017-10-01T12:06:00Z,28.4460,-96.3961,0.0,4.8,67.0,5.4,'11111222,11111222,11111222' 
TCOON,ioos:station:TCOON:057:1,2017-10-01T12:12:00Z,28.4460,-96.3961,0.0,4.6,61.0,5.5,'11111222,11111222,11111222' 
TCOON,ioos:station:TCOON:057:1,2017-10-01T12:18:00Z,28.4460,-96.3961,0.0,4.6,61.0,5.5,'1111122,1111122,1111122' 
TCOON,ioos:station:TCOON:057:1,2017-10-01T12:24:00Z,28.4460,-96.3961,0.0,5.1,62.0,5.7,'11111222,11111222,11111222' 
TCOON,ioos:station:TCOON:057:1,2017-10-01T12:30:00Z,28.4460,-96.3961,0.0,4.8,62.0,5.6,'11111222,11111222,11111222' 
TCOON,ioos:station:TCOON:057:1,2017-10-01T12:36:00Z,28.4460,-96.3961,0.0,4.5,57.0,5.2,'11111222,11111222,11111222' 
TCOON,ioos:station:TCOON:057:1,2017-10-01T12:42:00Z,28.4460,-96.3961,0.0,4.5,65.0,5.3,'11111222,11111222,11111222' 
TCOON,ioos:station:TCOON:057:1,2017-10-01T12:48:00Z,28.4460,-96.3961,0.0,4.8,63.0,5.4,'11111222,11111222,11111222' 
TCOON,ioos:station:TCOON:057:1,2017-10-01T12:54:00Z,28.4460,-96.3961,0.0,4.6,57.0,5.4,'11111222,11111222,11111222' 
TCOON,ioos:station:TCOON:057:1,2017-10-01T13:00:00Z,28.4460,-96.3961,0.0,4.8,55.0,5.2,'11111222,11111222,11111222' 
TCOON,ioos:station:TCOON:057:1,2017-10-01T13:06:00Z,28.4460,-96.3961,0.0,4.6,54.0,5.2,'11111222,11111222,11111222' 
TCOON,ioos:station:TCOON:057:1,2017-10-01T13:12:00Z,28.4460,-96.3961,0.0,4.8,58.0,5.6,'11111222,11111222,11111222' 
TCOON,ioos:station:TCOON:057:1,2017-10-01T13:18:00Z,28.4460,-96.3961,0.0,4.8,58.0,5.6,'1111122,1111122,1111122' 
TCOON,ioos:station:TCOON:057:1,2017-10-01T13:24:00Z,28.4460,-96.3961,0.0,4.7,46.0,5.5,'11111222,11111222,11111222' 
TCOON,ioos:station:TCOON:057:1,2017-10-01T13:30:00Z,28.4460,-96.3961,0.0,4.4,53.0,5.2,'11111222,11111222,11111222' 
TCOON,ioos:station:TCOON:057:1,2017-10-01T13:36:00Z,28.4460,-96.3961,0.0,4.3,50.0,5.0,'11111222,11111222,11111222' 
TCOON,ioos:station:TCOON:057:1,2017-10-01T13:42:00Z,28.4460,-96.3961,0.0,4.3,56.0,5.2,'11111222,11111222,11111222' 
TCOON,ioos:station:TCOON:057:1,2017-10-01T13:48:00Z,28.4460,-96.3961,0.0,4.0,48.0,5.0,'11111222,11111222,11111222' 
TCOON,ioos:station:TCOON:057:1,2017-10-01T13:54:00Z,28.4460,-96.3961,0.0,4.2,47.0,4.8,'11111222,11111222,11111222' 
TCOON,ioos:station:TCOON:057:1,2017-10-01T14:00:00Z,28.4460,-96.3961,0.0,4.3,42.0,4.8,'11111222,11111222,11111222' 
TCOON,ioos:station:TCOON:057:1,2017-10-01T14:06:00Z,28.4460,-96.3961,0.0,4.1,50.0,4.7,'11111222,11111222,11111222' 
TCOON,ioos:station:TCOON:057:1,2017-10-01T14:12:00Z,28.4460,-96.3961,0.0,3.8,51.0,4.7,'11111222,11111222,11111222' 
TCOON,ioos:station:TCOON:057:1,2017-10-01T14:18:00Z,28.4460,-96.3961,0.0,3.8,51.0,4.7,'1111122,1111122,1111122' 
TCOON,ioos:station:TCOON:057:1,2017-10-01T14:24:00Z,28.4460,-96.3961,0.0,4.0,45.0,4.6,'11111222,11111222,11111222' 
TCOON,ioos:station:TCOON:057:1,2017-10-01T14:30:00Z,28.4460,-96.3961,0.0,3.9,43.0,4.6,'11111222,11111222,11111222' 
TCOON,ioos:station:TCOON:057:1,2017-10-01T14:36:00Z,28.4460,-96.3961,0.0,3.7,52.0,4.3,'11111222,11111222,11111222' 
TCOON,ioos:station:TCOON:057:1,2017-10-01T14:42:00Z,28.4460,-96.3961,0.0,3.6,51.0,4.1,'11111222,11111222,11111222' 
TCOON,ioos:station:TCOON:057:1,2017-10-01T14:48:00Z,28.4460,-96.3961,0.0,3.7,51.0,4.1,'11111222,11111222,11111222' 
TCOON,ioos:station:TCOON:057:1,2017-10-01T14:54:00Z,28.4460,-96.3961,0.0,3.4,55.0,4.0,'11111222,11111222,11111222' 
TCOON,ioos:station:TCOON:057:1,2017-10-01T15:00:00Z,28.4460,-96.3961,0.0,3.3,48.0,4.1,'11111222,11111222,11111222' 
TCOON,ioos:station:TCOON:057:1,2017-10-01T15:06:00Z,28.4460,-96.3961,0.0,3.3,56.0,4.0,'11111222,11111222,11111222' 
TCOON,ioos:station:TCOON:057:1,2017-10-01T15:12:00Z,28.4460,-96.3961,0.0,3.4,53.0,3.8,'11111222,11111222,11111222' 
TCOON,ioos:station:TCOON:057:1,2017-10-01T15:18:00Z,28.4460,-96.3961,0.0,3.4,53.0,3.8,'1111122,1111122,1111122' 
TCOON,ioos:station:TCOON:057:1,2017-10-01T15:24:00Z,28.4460,-96.3961,0.0,3.1,47.0,3.8,'11111222,11111222,11111222' 
TCOON,ioos:station:TCOON:057:1,2017-10-01T15:30:00Z,28.4460,-96.3961,0.0,3.2,46.0,3.6,'11111222,11111222,11111222' 
TCOON,ioos:station:TCOON:057:1,2017-10-01T15:36:00Z,28.4460,-96.3961,0.0,3.3,48.0,3.6,'11111222,11111222,11111222' 
TCOON,ioos:station:TCOON:057:1,2017-10-01T15:42:00Z,28.4460,-96.3961,0.0,3.4,47.0,3.8,'11111222,11111222,11111222' 
TCOON,ioos:station:TCOON:057:1,2017-10-01T15:48:00Z,28.4460,-96.3961,0.0,3.1,47.0,3.8,'11111222,11111222,11111222' 
TCOON,ioos:station:TCOON:057:1,2017-10-01T15:54:00Z,28.4460,-96.3961,0.0,3.3,45.0,3.6,'11111222,11111222,11111222' 
TCOON,ioos:station:TCOON:057:1,2017-10-01T16:00:00Z,28.4460,-96.3961,0.0,3.6,34.0,4.0,'11111222,11111222,11111222' 
TCOON,ioos:station:TCOON:057:1,2017-10-01T16:06:00Z,28.4460,-96.3961,0.0,3.3,43.0,3.7,'11111222,11111222,11111222' 
TCOON,ioos:station:TCOON:057:1,2017-10-01T16:12:00Z,28.4460,-96.3961,0.0,3.1,46.0,3.7,'11111222,11111222,11111222' 
TCOON,ioos:station:TCOON:057:1,2017-10-01T16:18:00Z,28.4460,-96.3961,0.0,3.1,46.0,3.7,'1111122,1111122,1111122' 
TCOON,ioos:station:TCOON:057:1,2017-10-01T16:24:00Z,28.4460,-96.3961,0.0,3.0,32.0,4.0,'11111222,11111222,11111222' 
TCOON,ioos:station:TCOON:057:1,2017-10-01T16:30:00Z,28.4460,-96.3961,0.0,3.0,45.0,3.3,'11111222,11111222,11111222' 
TCOON,ioos:station:TCOON:057:1,2017-10-01T16:36:00Z,28.4460,-96.3961,0.0,2.9,47.0,3.3,'11111222,11111222,11111222' 
TCOON,ioos:station:TCOON:057:1,2017-10-01T16:42:00Z,28.4460,-96.3961,0.0,2.8,48.0,3.4,'11111222,11111222,11111222' 
TCOON,ioos:station:TCOON:057:1,2017-10-01T16:48:00Z,28.4460,-96.3961,0.0,2.6,33.0,3.3,'11111222,11111222,11111222' 
TCOON,ioos:station:TCOON:057:1,2017-10-01T16:54:00Z,28.4460,-96.3961,0.0,2.6,38.0,3.3,'11111222,11111222,11111222' 
TCOON,ioos:station:TCOON:057:1,2017-10-01T17:00:00Z,28.4460,-96.3961,0.0,2.7,37.0,3.2,'11111222,11111222,11111222' 
TCOON,ioos:station:TCOON:057:1,2017-10-01T17:06:00Z,28.4460,-96.3961,0.0,2.6,40.0,3.0,'11111222,11111222,11111222' 
TCOON,ioos:station:TCOON:057:1,2017-10-01T17:12:00Z,28.4460,-96.3961,0.0,2.2,41.0,3.2,'11111222,11111222,11111222' 
TCOON,ioos:station:TCOON:057:1,2017-10-01T17:18:00Z,28.4460,-96.3961,0.0,2.2,41.0,3.2,'1111122,1111122,1111122' 
TCOON,ioos:station:TCOON:057:1,2017-10-01T17:24:00Z,28.4460,-96.3961,0.0,2.8,28.0,3.4,'11111222,11111222,11111222' 
TCOON,ioos:station:TCOON:057:1,2017-10-01T17:30:00Z,28.4460,-96.3961,0.0,2.6,32.0,3.2,'11111222,11111222,11111222' 
TCOON,ioos:station:TCOON:057:1,2017-10-01T17:36:00Z,28.4460,-96.3961,0.0,2.7,46.0,3.3,'11111222,11111222,11111222' 
TCOON,ioos:station:TCOON:057:1,2017-10-01T17:42:00Z,28.4460,-96.3961,0.0,2.4,47.0,2.9,'11111222,11111222,11111222' 
TCOON,ioos:station:TCOON:057:1,2017-10-01T17:48:00Z,28.4460,-96.3961,0.0,2.7,40.0,3.2,'11111222,11111222,11111222' 
TCOON,ioos:station:TCOON:057:1,2017-10-01T17:54:00Z,28.4460,-96.3961,0.0,2.5,40.0,2.9,'11111222,11111222,11111222' 
TCOON,ioos:station:TCOON:057:1,2017-10-01T18:00:00Z,28.4460,-96.3961,0.0,2.5,45.0,2.8,'11111222,11111222,11111222' 
TCOON,ioos:station:TCOON:057:1,2017-10-01T18:06:00Z,28.4460,-96.3961,0.0,2.4,45.0,3.0,'11111222,11111222,11111222' 
TCOON,ioos:station:TCOON:057:1,2017-10-01T18:12:00Z,28.4460,-96.3961,0.0,2.5,45.0,3.1,'11111222,11111222,11111222' 
TCOON,ioos:station:TCOON:057:1,2017-10-01T18:18:00Z,28.4460,-96.3961,0.0,2.5,45.0,3.1,'1111122,1111122,1111122' 
TCOON,ioos:station:TCOON:057:1,2017-10-01T18:24:00Z,28.4460,-96.3961,0.0,2.0,53.0,2.9,'11111222,11111222,11111222' 
TCOON,ioos:station:TCOON:057:1,2017-10-01T18:30:00Z,28.4460,-96.3961,0.0,2.3,59.0,3.4,'11111222,11111222,11111222' 
TCOON,ioos:station:TCOON:057:1,2017-10-01T18:36:00Z,28.4460,-96.3961,0.0,2.8,69.0,3.1,'11111222,11111222,11111222' 
TCOON,ioos:station:TCOON:057:1,2017-10-01T18:42:00Z,28.4460,-96.3961,0.0,2.0,63.0,2.8,'11111222,11111222,11111222' 
TCOON,ioos:station:TCOON:057:1,2017-10-01T18:48:00Z,28.4460,-96.3961,0.0,2.2,73.0,2.6,'11111222,11111222,11111222' 
TCOON,ioos:station:TCOON:057:1,2017-10-01T18:54:00Z,28.4460,-96.3961,0.0,3.6,117.0,4.3,'11111222,11111222,11111222' 
TCOON,ioos:station:TCOON:057:1,2017-10-01T19:00:00Z,28.4460,-96.3961,0.0,3.3,121.0,4.4,'11111222,11111222,11111222' 
TCOON,ioos:station:TCOON:057:1,2017-10-01T19:06:00Z,28.4460,-96.3961,0.0,3.4,118.0,3.9,'11111222,11111222,11111222' 
TCOON,ioos:station:TCOON:057:1,2017-10-01T19:12:00Z,28.4460,-96.3961,0.0,3.2,130.0,3.7,'11111222,11111222,11111222' 
TCOON,ioos:station:TCOON:057:1,2017-10-01T19:18:00Z,28.4460,-96.3961,0.0,3.2,130.0,3.7,'1111122,1111122,1111122' 
TCOON,ioos:station:TCOON:057:1,2017-10-01T19:24:00Z,28.4460,-96.3961,0.0,2.7,123.0,3.7,'11111222,11111222,11111222' 
TCOON,ioos:station:TCOON:057:1,2017-10-01T19:30:00Z,28.4460,-96.3961,0.0,3.3,124.0,4.0,'11111222,11111222,11111222' 
TCOON,ioos:station:TCOON:057:1,2017-10-01T19:36:00Z,28.4460,-96.3961,0.0,3.1,127.0,3.8,'11111222,11111222,11111222' 
TCOON,ioos:station:TCOON:057:1,2017-10-01T19:42:00Z,28.4460,-96.3961,0.0,3.2,117.0,3.8,'11111222,11111222,11111222' 
TCOON,ioos:station:TCOON:057:1,2017-10-01T19:48:00Z,28.4460,-96.3961,0.0,2.8,123.0,3.5,'11111222,11111222,11111222' 
TCOON,ioos:station:TCOON:057:1,2017-10-01T19:54:00Z,28.4460,-96.3961,0.0,3.2,129.0,3.8,'11111222,11111222,11111222' 
TCOON,ioos:station:TCOON:057:1,2017-10-01T20:00:00Z,28.4460,-96.3961,0.0,2.8,124.0,3.9,'11111222,11111222,11111222' 
TCOON,ioos:station:TCOON:057:1,2017-10-01T20:06:00Z,28.4460,-96.3961,0.0,2.7,124.0,3.1,'11111222,11111222,11111222' 
TCOON,ioos:station:TCOON:057:1,2017-10-01T20:12:00Z,28.4460,-96.3961,0.0,3.3,132.0,4.1,'11111222,11111222,11111222' 
TCOON,ioos:station:TCOON:057:1,2017-10-01T20:18:00Z,28.4460,-96.3961,0.0,3.3,132.0,4.1,'1111122,1111122,1111122' 
TCOON,ioos:station:TCOON:057:1,2017-10-01T20:24:00Z,28.4460,-96.3961,0.0,2.8,117.0,3.8,'11111222,11111222,11111222' 
TCOON,ioos:station:TCOON:057:1,2017-10-01T20:30:00Z,28.4460,-96.3961,0.0,2.9,119.0,3.5,'11111222,11111222,11111222' 